Temp
19 19 20 20 20 21 21 21 22 22 23 23 23 24 24 25 26 27 28 27 27 27 28 28 29 30 30 32 32 32 33 31 31 31 30 30 31 29 29 29 27 26 26 24 24
19 19 20 20 20 21 21 22 22 22 23 23 24 24 24 25 26 27 27 27 27 27 28 30 31 31 33 33 33 34 33 32 34 33 32 31 30 30 30 29 27 26 25 24 23
18 19 20 20 20 21 21 22 22 22 23 23 23 24 24 25 26 28 27 27 28 28 27 30 31 32 34 34 34 34 33 33 33 32 32 31 30 30 31 31 28 26 24 24 24
18 19 19 20 20 21 21 22 22 22 23 23 23 24 25 25 30 27 27 27 28 28 28 31 32 33 35 34 34 33 33 33 33 32 32 32 30 30 30 29 28 26 25 24 24
19 19 19 20 20 21 21 21 22 22 22 23 23 24 25 26 29 27 27 28 28 28 30 32 33 34 34 35 34 34 34 33 32 32 32 31 31 31 29 28 27 26 25 25 25
19 19 19 20 20 20 21 21 21 22 22 23 23 24 24 28 28 27 27 28 28 29 31 32 32 33 34 35 35 34 33 34 33 33 32 33 31 31 29 28 27 26 26 26 26
19 19 19 20 20 20 21 21 21 21 22 22 22 23 24 27 28 27 27 29 29 30 31 31 31 32 34 35 34 34 34 34 34 34 34 33 32 31 29 28 27 27 27 27 27
19 19 20 20 20 21 21 21 21 21 21 22 22 22 25 27 27 27 28 29 29 29 30 31 31 32 33 34 34 34 35 33 34 34 33 32 31 31 29 29 29 28 28 27 27
19 19 20 20 20 20 21 20 21 21 21 22 22 22 27 27 27 28 28 29 30 30 30 30 31 33 34 35 35 35 31 33 33 34 34 33 32 31 30 30 30 29 28 28 27
19 20 20 20 20 20 20 20 21 21 21 22 21 23 26 28 29 29 29 29 30 31 31 31 32 35 35 35 30 33 34 33 33 34 34 34 33 33 31 31 31 30 29 28 28
19 20 20 20 20 20 20 20 21 21 21 27 28 28 29 28 28 29 29 29 30 31 32 33 34 34 35 34 34 34 34 33 34 34 34 34 34 33 32 32 31 31 30 29 29
19 20 20 20 20 20 20 21 24 23 27 26 27 27 27 28 29 29 29 30 31 32 33 33 32 34 35 34 34 34 34 34 34 34 34 34 34 35 33 33 32 31 31 30 30
19 19 20 20 20 20 20 23 22 23 27 28 28 28 28 28 30 30 30 31 32 32 33 33 34 35 34 34 33 34 34 33 34 34 35 34 33 34 34 33 32 32 31 31 30
19 19 19 20 20 20 20 22 22 22 29 30 29 29 28 29 32 31 30 31 33 32 33 33 35 33 33 33 34 33 35 34 33 33 33 35 31 33 33 33 33 33 32 32 31
19 19 19 19 20 21 23 22 22 22 28 31 31 29 30 31 32 31 30 31 32 33 33 33 33 33 33 34 35 34 34 34 34 34 35 35 33 32 34 32 33 33 32 32 31
19 19 19 19 20 21 20 21 23 27 29 31 31 31 31 31 32 31 30 31 32 33 33 34 34 34 34 35 34 35 34 34 34 34 33 35 35 31 30 33 33 33 32 32 32
19 19 19 19 21 20 20 22 27 29 33 31 31 32 32 32 32 32 31 31 32 31 31 32 33 34 34 34 35 34 34 33 32 33 33 36 34 25 23 33 33 32 31 31 32
19 19 19 20 18 19 21 26 27 32 32 33 33 33 32 33 33 32 32 32 33 34 34 32 31 34 34 34 34 34 35 34 30 31 28 34 33 25 29 31 31 31 31 31 31
19 19 17 20 21 20 24 27 30 32 34 33 33 32 32 33 33 33 33 33 34 34 33 33 33 35 35 35 35 34 33 36 34 32 30 31 34 33 33 32 31 30 30 31 31
18 19 21 19 19 20 26 27 31 32 33 34 32 33 32 33 32 32 33 34 34 34 35 34 33 35 35 34 34 34 35 34 34 29 30 27 21 29 29 30 31 30 29 28 27
19 23 21 19 20 23 27 30 31 31 31 33 33 33 33 33 33 33 33 34 34 34 34 35 31 33 34 33 34 34 33 34 34 31 31 25 24 25 25 30 31 30 28 27 27
20 27 20 20 24 27 29 30 28 31 31 33 33 34 34 34 33 33 33 34 33 34 33 34 33 32 33 34 35 34 34 34 33 32 33 32 31 24 30 32 30 29 28 27 26
23 24 21 22 26 29 30 30 30 31 32 32 32 34 35 34 32 34 33 31 32 33 33 34 33 22 29 33 34 33 34 34 34 34 32 31 28 33 31 30 28 27 26 25 25
23 26 23 23 25 29 30 30 30 30 31 32 33 34 34 33 34 33 33 32 31 32 28 30 34 31 22 20 25 32 32 33 33 32 32 33 31 32 30 29 28 26 25 25 24
23 28 27 27 28 29 29 30 30 31 31 31 32 33 33 32 33 32 33 31 31 28 30 33 32 32 27 24 29 32 32 32 31 32 31 32 32 33 31 30 28 26 25 24 24
22 24 26 28 28 29 23 29 29 31 32 32 32 33 33 32 32 32 33 32 32 31 32 33 30 31 30 32 32 31 31 31 32 31 31 31 31 33 32 31 29 27 25 24 24
19 21 22 26 29 29 30 30 30 30 30 31 33 33 32 32 33 33 33 33 33 32 32 32 32 30 29 32 31 30 31 31 31 31 31 30 30 30 30 29 29 28 26 25 24
Height
1521 1521 1520 1520 1520 1520 1519 1519 1518 1518 1517 1517 1516 1515 1513 1511 1510 1508 1507 1507 1507 1505 1503 1502 1501 1499 1497 1493 1492 1487 1486 1497 1496 1498 1502 1501 1501 1507 1507 1507 1512 1516 1517 1523 1529
1520 1520 1519 1519 1519 1519 1518 1518 1518 1517 1517 1516 1516 1515 1513 1511 1509 1507 1507 1506 1506 1505 1503 1502 1498 1497 1490 1490 1489 1482 1489 1493 1488 1494 1499 1501 1503 1505 1503 1506 1513 1518 1520 1525 1531
1519 1518 1518 1518 1517 1517 1517 1517 1517 1516 1516 1515 1515 1514 1513 1511 1508 1504 1505 1506 1506 1504 1503 1502 1500 1494 1486 1484 1486 1482 1492 1489 1493 1495 1497 1502 1504 1504 1499 1502 1508 1518 1523 1527 1531
1518 1517 1516 1516 1516 1516 1516 1516 1516 1515 1515 1514 1514 1514 1513 1512 1504 1503 1505 1506 1505 1504 1504 1500 1495 1488 1482 1484 1487 1491 1493 1491 1494 1498 1497 1500 1503 1506 1507 1509 1509 1518 1524 1528 1533
1517 1516 1515 1514 1514 1514 1514 1514 1514 1514 1513 1513 1513 1513 1513 1511 1505 1503 1505 1506 1505 1505 1503 1500 1492 1487 1488 1482 1487 1488 1493 1494 1497 1497 1497 1501 1503 1504 1510 1511 1515 1520 1526 1529 1532
1515 1514 1513 1512 1512 1511 1511 1511 1511 1512 1512 1512 1512 1512 1513 1509 1504 1505 1506 1506 1506 1505 1502 1500 1497 1494 1485 1484 1484 1491 1493 1492 1493 1495 1498 1497 1502 1501 1512 1515 1519 1523 1526 1528 1531
1514 1512 1511 1510 1509 1509 1509 1509 1509 1510 1510 1510 1510 1510 1511 1505 1503 1505 1506 1505 1505 1505 1502 1501 1500 1495 1488 1484 1490 1489 1488 1488 1491 1492 1492 1495 1501 1503 1513 1516 1520 1523 1525 1528 1531
1511 1510 1508 1508 1507 1507 1507 1507 1508 1508 1508 1509 1509 1510 1506 1502 1502 1503 1504 1505 1504 1504 1504 1502 1500 1495 1488 1488 1489 1486 1483 1494 1491 1493 1494 1498 1507 1506 1513 1515 1517 1522 1524 1527 1531
1509 1507 1506 1505 1505 1505 1505 1506 1506 1506 1507 1508 1509 1509 1502 1498 1499 1501 1503 1503 1503 1503 1503 1502 1500 1490 1489 1483 1484 1483 1504 1491 1493 1492 1489 1495 1502 1505 1511 1513 1515 1519 1523 1527 1530
1506 1504 1504 1503 1503 1503 1504 1504 1504 1505 1505 1506 1507 1510 1498 1494 1495 1498 1500 1501 1502 1501 1502 1501 1495 1485 1478 1476 1514 1492 1487 1491 1493 1492 1492 1489 1494 1500 1507 1508 1512 1515 1520 1526 1529
1504 1502 1501 1501 1501 1502 1503 1504 1507 1505 1503 1493 1493 1493 1492 1494 1496 1497 1499 1501 1500 1499 1495 1492 1489 1484 1475 1480 1486 1486 1487 1492 1489 1488 1492 1489 1486 1494 1501 1504 1508 1512 1517 1522 1525
1501 1499 1499 1499 1499 1500 1501 1503 1499 1500 1492 1493 1494 1494 1494 1493 1494 1495 1498 1498 1497 1495 1491 1491 1493 1478 1481 1485 1488 1486 1489 1488 1484 1487 1489 1486 1487 1483 1495 1499 1502 1509 1512 1516 1520
1499 1497 1497 1497 1498 1498 1499 1501 1500 1500 1491 1487 1490 1490 1490 1493 1488 1490 1495 1494 1491 1490 1483 1486 1479 1477 1485 1486 1491 1485 1484 1488 1488 1483 1484 1487 1492 1488 1489 1494 1499 1504 1507 1510 1516
1496 1495 1495 1496 1500 1499 1499 1499 1500 1500 1484 1480 1485 1486 1488 1487 1484 1486 1491 1492 1489 1486 1483 1483 1476 1483 1486 1490 1481 1487 1478 1485 1491 1492 1495 1476 1513 1491 1489 1491 1496 1499 1503 1505 1512
1494 1493 1494 1495 1494 1499 1500 1499 1500 1501 1491 1471 1476 1481 1482 1482 1478 1486 1489 1490 1486 1485 1484 1486 1481 1486 1488 1484 1476 1484 1481 1484 1485 1486 1477 1477 1488 1490 1482 1491 1492 1495 1500 1502 1508
1491 1491 1492 1494 1495 1496 1497 1499 1500 1497 1483 1466 1471 1477 1478 1477 1477 1483 1488 1488 1482 1481 1484 1478 1478 1481 1479 1474 1481 1480 1483 1482 1482 1482 1493 1470 1474 1491 1498 1484 1487 1491 1495 1498 1503
1489 1489 1490 1491 1497 1496 1497 1499 1492 1480 1453 1465 1468 1469 1470 1470 1474 1480 1483 1485 1485 1493 1492 1483 1482 1479 1476 1480 1480 1483 1485 1496 1500 1492 1490 1455 1471 1503 1505 1482 1482 1492 1496 1498 1501
1487 1487 1488 1489 1492 1493 1498 1494 1488 1452 1451 1451 1457 1463 1467 1465 1469 1475 1478 1481 1475 1471 1472 1486 1496 1478 1476 1478 1477 1476 1477 1483 1514 1503 1524 1466 1484 1503 1489 1482 1489 1494 1495 1496 1500
1486 1487 1488 1490 1490 1492 1496 1484 1463 1449 1441 1449 1454 1464 1464 1463 1463 1469 1471 1470 1466 1470 1474 1471 1476 1462 1468 1470 1475 1476 1485 1462 1471 1478 1507 1493 1467 1477 1479 1484 1490 1494 1497 1497 1499
1486 1489 1490 1490 1491 1494 1489 1472 1452 1453 1447 1446 1459 1455 1464 1463 1469 1467 1467 1461 1463 1466 1461 1461 1477 1462 1466 1472 1472 1471 1464 1478 1471 1512 1505 1514 1531 1485 1485 1487 1489 1495 1499 1503 1507
1486 1485 1488 1490 1493 1492 1479 1461 1458 1459 1460 1449 1448 1454 1452 1459 1461 1463 1465 1462 1461 1466 1467 1459 1478 1475 1470 1473 1471 1475 1476 1468 1470 1487 1495 1526 1526 1484 1459 1464 1480 1492 1501 1505 1508
1485 1475 1486 1490 1491 1481 1467 1459 1467 1459 1461 1452 1449 1445 1447 1452 1457 1457 1461 1459 1467 1465 1472 1464 1464 1481 1469 1461 1464 1463 1466 1466 1473 1484 1473 1483 1481 1468 1448 1474 1476 1494 1501 1506 1510
1481 1481 1488 1489 1477 1468 1461 1463 1464 1457 1454 1455 1452 1442 1442 1451 1463 1451 1457 1469 1472 1468 1468 1463 1468 1526 1495 1469 1467 1471 1466 1468 1466 1464 1481 1490 1501 1468 1471 1480 1493 1499 1505 1510 1514
1481 1473 1485 1486 1476 1465 1460 1461 1459 1461 1456 1453 1447 1447 1448 1451 1451 1459 1461 1472 1474 1471 1476 1474 1463 1473 1526 1530 1502 1478 1477 1474 1476 1484 1477 1470 1480 1474 1479 1488 1498 1504 1509 1513 1517
1479 1461 1467 1473 1471 1464 1462 1458 1462 1456 1457 1457 1454 1450 1450 1457 1456 1459 1457 1472 1475 1479 1478 1473 1475 1469 1492 1500 1490 1477 1478 1477 1481 1481 1491 1479 1473 1468 1475 1485 1495 1505 1512 1517 1520
1483 1476 1472 1463 1463 1465 1468 1464 1461 1453 1453 1454 1452 1448 1444 1450 1450 1452 1454 1463 1470 1477 1474 1469 1481 1478 1488 1471 1476 1484 1478 1477 1477 1478 1482 1482 1482 1472 1475 1482 1491 1501 1513 1518 1521
1488 1484 1480 1466 1461 1463 1458 1457 1457 1460 1460 1453 1445 1447 1448 1448 1446 1445 1451 1457 1461 1469 1471 1471 1470 1480 1490 1472 1475 1490 1476 1474 1473 1476 1480 1489 1483 1482 1484 1488 1493 1499 1508 1516 1520
Wind_Speed
6 6 7 7 7 8 7 7 7 8 8 8 9 9 10 10 8 6 3 2 4 4 6 6 6 4 5 4 1 3 7 8 13 10 10 5 12 9 3 9 8 3 11 21 22
6 7 8 8 9 9 9 9 9 9 9 9 9 9 10 11 9 8 7 6 5 5 5 7 7 4 6 5 2 3 11 10 13 14 12 10 12 5 6 10 10 8 15 22 24
6 7 8 9 9 10 10 10 10 10 10 10 9 8 8 10 11 6 6 6 5 5 7 9 6 10 7 6 1 11 8 13 16 11 14 9 13 5 4 9 16 13 19 20 22
7 8 8 9 10 11 11 11 11 11 11 11 10 8 8 9 4 4 6 6 5 4 7 8 8 15 5 6 5 13 6 12 13 3 8 11 3 14 13 7 14 17 18 19 21
8 8 9 9 10 10 11 11 11 12 12 11 10 9 7 10 10 3 4 4 4 6 6 6 10 6 3 6 9 10 9 5 5 5 7 5 8 10 11 12 15 19 18 18 19
9 9 9 9 10 10 11 11 11 11 11 11 10 9 7 17 2 3 4 4 5 5 5 6 5 8 3 3 5 6 5 4 3 8 9 7 8 11 11 13 17 18 17 17 18
10 9 9 9 9 10 10 10 10 10 10 9 9 9 11 16 5 6 7 5 7 5 8 2 6 11 3 10 3 6 10 8 5 4 10 3 10 17 14 15 18 17 17 15 15
10 10 9 9 9 9 9 9 8 8 8 7 6 5 13 8 15 12 10 9 9 7 6 5 6 11 13 5 8 8 9 9 9 3 6 1 11 13 15 15 17 17 15 15 15
11 10 9 9 9 8 8 7 6 6 6 5 2 5 13 12 14 14 14 11 10 8 8 8 10 15 7 15 12 8 6 7 10 2 2 2 13 15 16 14 16 16 17 15 15
12 10 9 9 8 7 6 5 4 5 5 4 7 7 13 14 14 15 15 12 10 11 10 11 17 14 12 12 4 6 6 6 5 10 5 5 15 16 18 16 15 16 17 15 15
12 10 9 8 7 7 7 2 3 5 14 11 6 7 7 7 10 15 15 12 11 13 15 17 14 14 10 19 2 3 6 0 4 5 4 7 8 16 18 17 17 16 16 15 15
13 10 8 6 7 8 10 7 6 4 8 18 10 12 6 7 15 18 16 14 14 15 20 14 14 11 2 3 5 6 6 9 8 3 7 5 7 15 17 15 20 17 18 16 15
14 9 6 5 7 10 12 7 5 4 9 14 14 13 12 13 16 20 18 17 12 16 19 15 16 10 5 8 10 12 12 4 7 9 10 7 12 10 7 17 16 20 18 18 16
14 8 5 5 1 5 10 9 5 4 6 13 13 12 10 14 11 18 19 15 11 15 11 16 14 5 7 12 13 10 3 1 4 11 14 17 3 9 14 14 16 20 19 20 18
12 6 7 12 6 7 6 5 5 4 6 18 17 15 15 17 20 13 18 15 13 13 7 14 16 7 15 15 14 3 2 1 8 11 13 14 10 4 14 15 17 19 18 17 19
9 6 9 10 8 8 5 3 4 7 4 11 12 15 16 16 15 18 15 14 7 10 13 9 10 14 17 11 4 6 7 10 12 13 13 14 15 15 2 16 14 9 12 17 21
7 6 11 12 4 7 6 7 7 11 17 15 19 20 19 13 12 17 17 15 10 12 12 10 11 10 10 6 10 10 15 11 12 12 11 3 8 10 16 6 12 10 13 17 18
4 6 10 16 6 8 7 10 11 13 14 18 17 20 16 14 15 17 15 15 17 15 10 13 16 18 13 15 12 14 16 14 6 5 10 14 7 4 22 12 11 9 9 14 23
2 4 6 8 13 10 13 11 8 5 8 19 18 19 16 16 8 14 14 16 16 13 17 11 10 21 12 12 14 15 7 19 15 13 9 11 16 15 14 14 14 15 13 13 15
5 5 6 10 11 8 10 17 2 8 8 15 15 16 16 17 10 11 14 14 8 12 17 2 7 11 10 10 11 18 11 13 9 1 11 7 4 11 9 11 13 14 15 15 13
7 8 5 11 9 12 11 11 2 5 9 9 15 15 12 15 15 14 12 9 7 10 9 13 11 6 10 13 16 9 11 11 1 6 10 3 7 10 23 20 15 15 16 18 18
7 4 11 15 12 16 14 3 2 11 13 8 9 14 12 16 14 13 15 9 3 3 10 14 4 11 17 8 3 8 10 12 7 7 13 11 6 5 5 16 20 17 17 17 17
8 8 11 15 7 11 12 6 7 7 12 11 8 10 9 12 8 7 13 8 5 8 4 7 4 4 19 14 5 10 5 7 12 14 12 9 4 10 11 12 14 18 18 17 18
9 5 10 17 20 14 13 12 9 7 4 7 6 4 8 13 7 6 11 5 5 2 5 6 17 7 7 8 19 6 7 4 10 10 14 12 9 10 13 12 14 15 16 16 15
8 1 10 10 14 11 2 0 10 9 7 12 7 13 13 9 12 9 13 10 8 5 5 8 15 9 23 30 26 11 9 10 10 11 14 18 19 3 13 11 16 15 14 13 13
8 7 6 7 10 12 7 8 12 5 5 14 11 15 12 9 4 13 12 11 9 9 10 9 10 5 14 8 10 12 12 14 16 12 15 15 16 15 5 5 15 18 14 12 12
8 6 8 6 10 10 12 8 8 1 3 7 9 10 7 8 12 15 10 6 5 4 9 9 9 4 12 13 7 12 13 10 5 9 10 10 8 9 3 2 9 13 14 13 11
Wind_Direction
270 275 273 270 267 267 268 270 279 288 297 306 314 323 328 326 321 319 281 255 239 289 322 315 284 290 226 121 229 242 106 95 66 90 106 158 91 62 78 113 70 80 133 158 156
277 276 274 272 269 268 270 272 275 280 287 296 305 316 325 323 308 267 246 221 238 267 325 329 334 252 185 129 315 150 75 62 88 93 97 80 70 98 121 135 121 107 114 144 156
291 277 272 271 270 270 270 271 274 276 281 287 296 306 317 319 296 139 202 221 228 254 297 306 302 267 137 162 25 67 98 109 75 66 89 110 88 49 39 48 140 146 142 148 158
303 288 275 269 268 269 269 270 271 273 276 281 287 294 300 301 270 116 182 212 218 253 299 295 248 242 158 133 123 107 74 74 104 121 109 75 115 69 44 41 117 142 148 149 159
308 294 284 275 269 266 266 267 269 269 271 275 280 283 285 253 249 217 189 218 228 268 280 319 302 280 291 103 125 92 102 143 87 132 84 117 63 84 74 92 120 140 144 150 157
310 300 291 282 273 266 263 263 265 266 267 270 272 271 270 260 253 219 234 241 226 250 262 306 350 318 357 78 78 94 92 104 144 118 116 134 128 125 104 108 127 136 144 155 151
310 299 292 284 274 265 260 260 262 265 266 267 268 267 262 243 238 228 225 222 228 251 278 304 326 273 282 150 158 153 187 163 94 138 132 99 132 102 130 126 136 143 149 150 156
311 299 290 284 277 265 255 253 257 260 263 264 266 264 256 243 231 232 219 233 236 246 254 290 299 284 276 102 195 231 232 149 106 178 122 13 106 132 148 144 144 148 152 156 157
313 299 287 281 275 261 249 247 250 255 255 251 283 227 255 230 225 212 209 219 215 225 241 265 276 277 189 223 188 205 246 85 130 200 126 232 122 147 161 167 145 158 157 167 168
317 300 286 279 269 247 233 234 245 244 232 228 242 240 235 223 200 197 201 215 215 211 224 237 240 231 231 228 29 300 118 166 115 137 223 221 134 151 174 182 161 160 162 173 174
320 302 285 273 253 225 194 182 226 222 211 214 213 233 141 173 183 193 193 203 212 224 224 202 237 234 225 110 238 358 295 23 136 105 251 253 155 158 167 188 160 175 164 171 179
324 302 283 264 232 213 197 213 335 337 242 221 230 236 231 203 182 195 189 205 206 222 228 237 237 272 79 23 269 267 231 220 145 163 262 168 248 145 163 192 170 189 170 170 178
323 300 278 238 220 217 203 222 265 298 253 172 209 212 198 192 193 185 193 209 209 227 228 248 217 208 199 215 244 228 253 29 318 184 219 238 231 158 187 175 188 180 184 175 177
319 293 248 192 190 206 230 237 235 289 259 147 187 208 186 204 210 192 199 208 225 236 220 231 249 224 208 240 239 282 71 323 251 257 233 205 154 205 165 173 182 189 195 180 174
312 272 215 182 178 189 161 188 245 222 241 153 154 147 176 206 146 188 193 203 236 220 225 219 235 194 232 227 234 78 332 223 274 272 269 206 209 229 159 163 176 190 184 199 181
302 247 204 199 215 177 209 237 178 233 185 149 149 178 177 214 188 155 178 215 260 206 224 279 210 212 214 211 235 2 258 222 229 245 258 235 230 187 282 152 159 166 183 194 184
286 230 207 185 169 197 208 198 217 245 141 153 167 173 191 174 159 172 186 199 193 201 195 211 193 225 269 196 187 232 250 245 222 215 237 293 226 138 263 162 150 165 190 201 198
268 209 199 191 212 191 196 229 247 230 190 155 176 176 198 171 174 184 190 203 229 233 205 206 183 208 184 246 249 210 237 259 262 275 326 191 191 131 212 133 138 149 154 181 189
175 184 195 206 187 188 215 228 214 183 146 171 168 182 200 177 184 199 208 217 191 224 259 183 238 180 207 195 237 255 257 273 301 153 217 260 112 132 138 135 139 129 131 143 167
134 188 170 185 182 190 234 247 327 340 318 179 184 192 187 184 208 201 189 205 196 197 261 253 218 173 176 231 243 265 319 224 244 15 295 46 214 117 113 139 136 138 131 132 141
165 204 181 174 174 214 229 226 243 195 249 239 197 197 190 184 210 210 184 149 184 177 235 265 121 221 172 209 181 194 235 248 195 312 271 64 299 160 160 184 150 135 139 142 142
259 207 160 167 205 222 228 196 47 240 202 266 295 190 214 178 207 212 162 154 111 202 204 245 52 213 202 126 275 297 328 284 289 220 327 310 209 20 305 131 127 134 136 131 132
249 115 167 180 225 204 239 208 235 222 195 200 225 244 215 171 211 195 103 90 173 226 326 254 245 62 295 173 182 248 197 277 302 305 295 274 113 170 95 98 131 134 129 132 134
272 152 160 210 259 281 203 217 203 217 292 258 238 221 196 187 199 197 118 142 174 312 338 311 275 244 124 299 288 230 212 262 299 293 304 288 116 155 142 146 146 140 144 143 141
245 86 167 190 229 247 214 249 217 171 230 209 214 208 197 186 199 185 139 136 172 162 222 254 275 321 156 180 222 288 303 297 283 297 292 301 306 67 154 170 161 156 156 158 161
314 338 211 307 196 208 164 210 233 161 238 186 222 225 203 208 197 172 155 181 165 178 231 240 258 263 293 264 224 282 289 290 281 268 278 281 285 292 1 153 174 167 170 183 178
338 297 279 158 207 211 203 233 211 71 200 316 200 200 111 32 39 35 29 13 104 226 220 268 281 220 269 288 284 274 274 305 323 312 297 277 22 3 340 257 203 181 175 199 180